SCP
-0 0 -1 -1 -1 -1 -1 -1 -0 -0 -0 -0 -0 -0 -0 -0 -0 -0 -0 -0 0 -0 -0 0 0 0 0 0 0 -0 0 0 0
0 -0 -0 -0 -0 -0 -1 -2 -1 -1 -1 -0 -0 -0 -0 -0 -0 -0 -0 -0 -0 0 -0 0 0 0 0 0 0 0 -0 0 0
0 0 0 -0 -0 -1 -0 -2 -2 -2 -1 -1 -0 -0 -0 -0 -0 -0 0 -0 -0 -0 -0 -0 0 0 0 0 0 0 -0 -0 -0
0 0 0 0 0 -0 -1 -1 -2 -3 -2 -1 -0 -0 -0 -0 0 0 0 -0 -0 -0 -0 -0 -0 0 0 0 0 0 0 -0 -0
0 0 0 0 -0 -0 -0 -1 -1 -3 -2 -2 -1 0 -0 0 0 0 0 -0 -0 -0 -0 0 0 0 0 -0 -0 0 -0 -0 -0
0 -0 -0 0 0 0 0 -0 -0 -2 -2 -1 -0 0 1 1 1 0 0 0 0 0 0 0 0 0 0 0 0 -0 0 -0 -0
0 -0 0 0 1 1 1 0 0 0 0 0 0 0 1 1 1 1 1 1 1 0 1 1 0 0 -0 0 0 0 0 0 -0
-0 -0 0 1 1 1 0 1 1 0 0 0 1 1 1 1 1 1 1 1 1 1 1 1 0 0 0 0 0 0 0 0 0
0 0 0 0 0 0 1 0 0 1 1 0 1 1 1 1 1 1 2 2 2 2 2 1 1 1 1 1 0 0 0 0 0
-0 0 0 0 0 0 0 0 0 0 0 0 1 1 1 1 1 1 2 2 3 2 2 2 2 1 1 1 0 0 0 0 0
-0 0 0 0 0 0 0 0 -0 -0 -0 0 1 1 1 1 1 2 2 3 3 2 3 2 2 2 2 1 0 0 0 0 0
-0 0 0 0 0 0 0 0 -0 -0 -0 -0 0 0 1 1 1 1 1 2 2 2 3 3 2 2 1 1 0 0 0 0 0
0 0 0 0 0 1 1 0 0 0 0 0 -0 0 0 0 0 1 1 1 2 2 2 1 2 1 1 1 0 0 0 0 0
0 0 0 0 0 0 0 0 0 1 1 0 0 0 0 0 0 0 0 1 1 1 1 1 1 1 1 0 0 0 0 0 0
0 0 0 0 0 1 1 1 1 1 1 1 1 0 0 0 0 1 1 1 1 1 2 1 1 1 0 0 0 0 0 0 0
0 0 0 0 0 1 1 1 1 1 0 0 0 0 0 1 1 1 1 1 1 2 2 2 2 1 0 0 0 0 0 0 0
0 0 0 0 0 1 1 0 0 0 0 0 0 0 0 1 1 1 1 1 1 1 2 3 2 1 1 0 0 0 0 0 0
0 0 0 0 0 0 0 0 0 0 0 0 0 0 1 1 1 1 1 1 0 1 2 3 2 2 1 1 1 0 0 0 0
0 0 0 0 0 0 0 0 0 0 0 0 0 1 1 1 1 1 1 1 1 0 0 0 0 0 1 0 0 0 0 0 0
0 0 0 0 0 0 0 0 0 0 0 0 1 2 2 1 1 1 1 0 0 0 0 0 0 0 0 0 0 0 0 0 0
Wind_Speed_500mb
58 71 85 88 94 92 88 86 82 76 71 59 53 55 52 50 51 47 42 35 31 25 11 7 15 19 16 12 10 12 11 6 1
51 77 80 85 90 93 90 83 84 81 74 65 56 47 48 47 54 54 48 38 32 27 22 19 14 16 15 14 11 12 13 10 7
30 65 69 79 86 89 94 88 78 77 76 67 57 52 45 48 48 53 52 47 41 35 30 26 20 23 15 14 16 14 16 14 10
31 42 57 67 78 85 83 84 82 76 76 72 63 59 47 45 47 49 52 56 52 44 37 34 29 26 22 20 22 20 22 20 14
34 33 23 30 40 65 74 77 80 77 73 74 65 59 56 50 45 47 51 51 52 49 44 40 36 31 29 29 28 27 26 22 21
34 18 10 10 34 41 57 68 76 78 74 70 68 64 60 57 51 49 55 53 51 51 49 47 44 42 38 36 34 33 33 26 23
2 15 35 45 41 32 21 31 63 71 70 73 72 69 67 61 55 52 55 57 55 55 53 55 55 52 47 42 40 38 37 32 27
25 8 31 35 34 33 24 19 12 15 46 65 66 71 72 63 49 53 53 54 55 54 58 59 59 55 50 47 47 43 38 35 32
31 24 32 25 23 19 16 14 12 8 13 21 32 60 62 64 56 52 55 52 51 54 56 60 60 60 56 55 54 48 39 37 36
30 29 29 21 17 11 10 11 11 7 3 11 23 23 39 59 65 61 62 60 58 59 58 58 62 62 56 61 55 46 43 41 39
38 31 31 24 16 14 10 8 9 13 14 6 8 21 31 34 39 49 64 69 67 56 54 58 58 62 61 57 56 51 47 44 42
36 34 23 21 25 18 14 6 12 19 19 11 8 4 8 20 31 37 40 44 53 53 53 59 63 64 61 60 57 55 50 43 40
39 34 20 24 27 18 8 5 11 17 20 8 13 10 9 11 13 19 34 42 48 52 52 54 57 60 60 56 57 55 51 42 36
35 33 27 20 16 11 4 5 8 15 19 16 21 23 25 24 26 26 27 29 36 45 48 57 62 59 61 62 59 61 56 57 53
42 39 32 24 22 17 14 11 9 10 15 22 28 36 38 36 32 34 35 34 34 37 51 54 63 66 66 66 58 59 62 64 56
43 38 34 32 28 26 20 15 12 16 28 37 41 43 45 44 40 36 39 37 39 37 37 47 60 66 67 67 57 63 58 69 52
46 46 45 40 35 29 22 17 15 29 30 38 42 51 53 46 48 46 42 36 35 35 39 49 55 65 70 68 67 71 64 67 59
46 42 34 33 30 24 22 26 33 33 34 37 39 38 40 39 46 53 50 42 40 36 42 46 53 56 58 70 76 77 76 63 67
28 28 28 28 28 29 28 28 25 29 32 30 35 42 42 43 47 46 47 45 42 39 38 44 48 44 56 61 60 75 73 66 73
17 23 28 27 25 21 18 24 30 33 28 31 34 40 44 40 45 45 44 36 38 41 37 36 48 53 59 45 59 57 71 77 74
Wind_Direction_500mb
221 208 199 204 207 210 213 211 209 209 210 209 209 213 218 225 225 227 230 235 240 254 238 246 252 241 244 251 250 239 261 261 208
202 195 195 202 209 209 215 214 212 212 213 213 213 215 216 222 229 231 231 232 239 245 238 252 252 240 229 234 243 245 249 248 283
129 194 194 196 209 210 215 220 219 218 217 217 216 215 217 221 225 232 236 233 236 238 235 241 241 236 228 232 239 240 251 245 262
112 149 170 190 210 214 216 219 219 222 219 217 218 219 216 219 222 225 229 233 235 239 238 238 239 235 233 232 233 231 232 243 252
126 109 126 183 206 209 211 215 219 224 223 219 220 221 221 220 220 222 225 229 232 234 232 235 240 239 239 238 238 238 232 234 235
332 348 15 151 208 211 216 216 219 224 224 225 223 222 224 227 224 225 228 230 230 228 232 238 240 240 243 241 245 240 237 237 238
112 342 101 103 113 118 132 217 228 229 230 228 228 226 226 229 231 228 227 227 228 227 231 234 239 243 244 241 241 240 238 236 235
228 278 99 90 92 98 110 128 144 213 240 246 238 233 229 230 238 238 232 230 230 230 233 236 240 244 244 243 240 238 238 232 228
147 131 95 93 99 95 96 111 129 175 227 230 234 238 236 235 237 236 236 235 235 236 237 236 237 239 242 241 237 237 239 234 228
151 140 126 119 130 93 77 76 97 91 101 216 230 231 237 241 240 239 240 239 238 236 236 239 237 239 241 239 243 240 236 231 229
165 143 153 137 161 140 123 94 62 50 63 38 266 237 236 235 237 242 244 242 242 241 240 242 241 243 244 243 246 241 236 233 230
161 153 154 159 170 171 150 95 23 355 354 16 26 359 284 259 255 252 245 241 241 242 242 241 243 244 243 241 248 248 229 227 235
159 151 135 146 150 150 163 60 14 343 328 300 345 341 320 303 288 271 257 252 245 246 245 249 250 246 242 243 249 243 226 219 225
172 168 178 166 170 180 137 346 318 298 308 308 317 319 313 297 291 285 279 263 264 250 246 254 251 246 243 243 246 237 223 211 202
179 177 180 193 216 227 223 228 244 255 276 296 306 315 319 313 296 291 285 280 275 262 255 247 247 243 243 244 245 236 227 216 202
182 188 190 197 208 207 197 196 222 281 298 299 301 301 304 307 309 308 301 285 285 282 263 246 245 245 247 248 244 232 227 212 227
193 196 195 198 202 207 215 227 265 317 311 313 303 293 289 291 297 302 305 282 279 272 265 260 255 250 250 249 241 234 218 226 230
190 191 199 208 215 222 245 274 293 309 312 316 316 315 303 292 290 297 298 283 272 262 269 262 261 264 263 254 242 242 232 224 206
207 216 216 227 242 256 268 280 289 303 316 317 316 311 306 291 292 293 295 289 280 270 259 256 262 263 271 272 268 255 254 232 223
218 231 235 239 252 259 257 280 301 315 311 314 304 297 306 291 292 294 296 290 291 291 278 269 249 254 260 259 266 259 250 234 225
Wind_Speed_850mb
58 71 85 88 94 92 88 86 82 76 71 59 53 55 52 50 51 47 42 35 31 25 11 7 15 19 16 12 10 12 11 6 1
51 77 80 85 90 93 90 83 84 81 74 65 56 47 48 47 54 54 48 38 32 27 22 19 14 16 15 14 11 12 13 10 7
30 65 69 79 86 89 94 88 78 77 76 67 57 52 45 48 48 53 52 47 41 35 30 26 20 23 15 14 16 14 16 14 10
31 42 57 67 78 85 83 84 82 76 76 72 63 59 47 45 47 49 52 56 52 44 37 34 29 26 22 20 22 20 22 20 14
34 33 23 30 40 65 74 77 80 77 73 74 65 59 56 50 45 47 51 51 52 49 44 40 36 31 29 29 28 27 26 22 21
34 18 10 10 34 41 57 68 76 78 74 70 68 64 60 57 51 49 55 53 51 51 49 47 44 42 38 36 34 33 33 26 23
2 15 35 45 41 32 21 31 63 71 70 73 72 69 67 61 55 52 55 57 55 55 53 55 55 52 47 42 40 38 37 32 27
25 8 31 35 34 33 24 19 12 15 46 65 66 71 72 63 49 53 53 54 55 54 58 59 59 55 50 47 47 43 38 35 32
31 24 32 25 23 19 16 14 12 8 13 21 32 60 62 64 56 52 55 52 51 54 56 60 60 60 56 55 54 48 39 37 36
30 29 29 21 17 11 10 11 11 7 3 11 23 23 39 59 65 61 62 60 58 59 58 58 62 62 56 61 55 46 43 41 39
38 31 31 24 16 14 10 8 9 13 14 6 8 21 31 34 39 49 64 69 67 56 54 58 58 62 61 57 56 51 47 44 42
36 34 23 21 25 18 14 6 12 19 19 11 8 4 8 20 31 37 40 44 53 53 53 59 63 64 61 60 57 55 50 43 40
39 34 20 24 27 18 8 5 11 17 20 8 13 10 9 11 13 19 34 42 48 52 52 54 57 60 60 56 57 55 51 42 36
35 33 27 20 16 11 4 5 8 15 19 16 21 23 25 24 26 26 27 29 36 45 48 57 62 59 61 62 59 61 56 57 53
42 39 32 24 22 17 14 11 9 10 15 22 28 36 38 36 32 34 35 34 34 37 51 54 63 66 66 66 58 59 62 64 56
43 38 34 32 28 26 20 15 12 16 28 37 41 43 45 44 40 36 39 37 39 37 37 47 60 66 67 67 57 63 58 69 52
46 46 45 40 35 29 22 17 15 29 30 38 42 51 53 46 48 46 42 36 35 35 39 49 55 65 70 68 67 71 64 67 59
46 42 34 33 30 24 22 26 33 33 34 37 39 38 40 39 46 53 50 42 40 36 42 46 53 56 58 70 76 77 76 63 67
28 28 28 28 28 29 28 28 25 29 32 30 35 42 42 43 47 46 47 45 42 39 38 44 48 44 56 61 60 75 73 66 73
17 23 28 27 25 21 18 24 30 33 28 31 34 40 44 40 45 45 44 36 38 41 37 36 48 53 59 45 59 57 71 77 74
Wind_Direction_850mb
221 208 199 204 207 210 213 211 209 209 210 209 209 213 218 225 225 227 230 235 240 254 238 246 252 241 244 251 250 239 261 261 208
202 195 195 202 209 209 215 214 212 212 213 213 213 215 216 222 229 231 231 232 239 245 238 252 252 240 229 234 243 245 249 248 283
129 194 194 196 209 210 215 220 219 218 217 217 216 215 217 221 225 232 236 233 236 238 235 241 241 236 228 232 239 240 251 245 262
112 149 170 190 210 214 216 219 219 222 219 217 218 219 216 219 222 225 229 233 235 239 238 238 239 235 233 232 233 231 232 243 252
126 109 126 183 206 209 211 215 219 224 223 219 220 221 221 220 220 222 225 229 232 234 232 235 240 239 239 238 238 238 232 234 235
332 348 15 151 208 211 216 216 219 224 224 225 223 222 224 227 224 225 228 230 230 228 232 238 240 240 243 241 245 240 237 237 238
112 342 101 103 113 118 132 217 228 229 230 228 228 226 226 229 231 228 227 227 228 227 231 234 239 243 244 241 241 240 238 236 235
228 278 99 90 92 98 110 128 144 213 240 246 238 233 229 230 238 238 232 230 230 230 233 236 240 244 244 243 240 238 238 232 228
147 131 95 93 99 95 96 111 129 175 227 230 234 238 236 235 237 236 236 235 235 236 237 236 237 239 242 241 237 237 239 234 228
151 140 126 119 130 93 77 76 97 91 101 216 230 231 237 241 240 239 240 239 238 236 236 239 237 239 241 239 243 240 236 231 229
165 143 153 137 161 140 123 94 62 50 63 38 266 237 236 235 237 242 244 242 242 241 240 242 241 243 244 243 246 241 236 233 230
161 153 154 159 170 171 150 95 23 355 354 16 26 359 284 259 255 252 245 241 241 242 242 241 243 244 243 241 248 248 229 227 235
159 151 135 146 150 150 163 60 14 343 328 300 345 341 320 303 288 271 257 252 245 246 245 249 250 246 242 243 249 243 226 219 225
172 168 178 166 170 180 137 346 318 298 308 308 317 319 313 297 291 285 279 263 264 250 246 254 251 246 243 243 246 237 223 211 202
179 177 180 193 216 227 223 228 244 255 276 296 306 315 319 313 296 291 285 280 275 262 255 247 247 243 243 244 245 236 227 216 202
182 188 190 197 208 207 197 196 222 281 298 299 301 301 304 307 309 308 301 285 285 282 263 246 245 245 247 248 244 232 227 212 227
193 196 195 198 202 207 215 227 265 317 311 313 303 293 289 291 297 302 305 282 279 272 265 260 255 250 250 249 241 234 218 226 230
190 191 199 208 215 222 245 274 293 309 312 316 316 315 303 292 290 297 298 283 272 262 269 262 261 264 263 254 242 242 232 224 206
207 216 216 227 242 256 268 280 289 303 316 317 316 311 306 291 292 293 295 289 280 270 259 256 262 263 271 272 268 255 254 232 223
218 231 235 239 252 259 257 280 301 315 311 314 304 297 306 291 292 294 296 290 291 291 278 269 249 254 260 259 266 259 250 234 225